Location: Corralito
(10.2667°N, 66.9500°W)
Time: 00:04:22
(UTC+00:00)

YAOGAN 3 - Pass Details

Date: 06 December 2023
Orbit: 615 x 616 km, 97.9° (Epoch: 01 March)

Event Time Altitude Azimuth Distance (km) Brightness Sun altitude
Rises 23:05:45 0° 156° (SSE) 2,873 8.0 -14.6°
Maximum altitude 23:12:04 44° 77° (ENE) 852 4.8 -16.1°
Drops below altitude 10° 23:16:08 10° 5° (N) 1,967 6.9 -17.0°
Sets 23:18:23 0° 359° (N) 2,871 7.8 -17.5°
